When you browse on this site, cookies collect data to enhance your experience and personalize the content and advertising you see.
Visit our Privacy Policy to learn more. By continuing to use the site, you agree to this use of cookies and data.
  • In Czech Republic
  • List of Countries
  • For 7 days
  • Water Temperature
  • Satellite Maps
  • Weather Map
  • Weather Widgets
  • user-avatar
    Login

    Hourly Weather Tarasovichi

    Today, 21 May, Tuesday

    Time Temperature Precipitation Wind Pressure Humidity
    00:00 +18°C° 0 mm 4 mps 747 mmHg 75%
    01:00 +18°C° 0 mm 4 mps 746 mmHg 75%
    02:00 +17°C° 0 mm 4 mps 746 mmHg 76%
    03:00 +17°C° 0 mm 4 mps 746 mmHg 76%
    04:00 +17°C° 0 mm 4 mps 746 mmHg 76%
    05:00 +17°C° 0 mm 4 mps 746 mmHg 76%
    06:00 +18°C° 0 mm 4 mps 746 mmHg 72%
    07:00 +19°C° 0 mm 5 mps 746 mmHg 69%
    08:00 +20°C° 0 mm 5 mps 746 mmHg 64%
    09:00 +21°C° 0 mm 6 mps 746 mmHg 59%
    10:00 +23°C° 0 mm 6 mps 746 mmHg 55%
    11:00 +24°C° 0 mm 6 mps 745 mmHg 50%
    12:00 +23°C° 0 mm 7 mps 745 mmHg 54%
    13:00 +23°C° 0 mm 7 mps 745 mmHg 57%
    14:00 +23°C° 0 mm 5 mps 745 mmHg 61%
    15:00 +22°C° 0.2 mm 6 mps 744 mmHg 65%
    16:00 +21°C° 0.2 mm 6 mps 744 mmHg 70%
    17:00 +21°C° 0.2 mm 6 mps 744 mmHg 74%
    18:00 +20°C° 0.2 mm 5 mps 743 mmHg 79%
    19:00 +19°C° 0.2 mm 4 mps 743 mmHg 83%
    20:00 +18°C° 0.2 mm 4 mps 743 mmHg 87%
    21:00 +17°C° 0 mm 3 mps 743 mmHg 90%
    22:00 +17°C° 0 mm 3 mps 743 mmHg 92%
    23:00 +16°C° 0 mm 3 mps 743 mmHg 95%

    Tomorrow, 22 May, Wednesday

    Time Temperature Precipitation Wind Pressure Humidity
    00:00 +16°C° 0 mm 3 mps 743 mmHg 96%
    01:00 +14°C° 0 mm 3 mps 743 mmHg 97%
    02:00 +15°C° 0 mm 2 mps 743 mmHg 98%
    03:00 +14°C° 0 mm 2 mps 743 mmHg 98%
    04:00 +14°C° 0 mm 2 mps 743 mmHg 98%
    05:00 +13°C° 0 mm 2 mps 743 mmHg 98%
    06:00 +15°C° 0 mm 2 mps 743 mmHg 91%
    07:00 +16°C° 0 mm 2 mps 743 mmHg 85%
    08:00 +18°C° 0 mm 2 mps 743 mmHg 79%
    09:00 +20°C° 0 mm 2 mps 743 mmHg 70%
    10:00 +21°C° 0 mm 2 mps 743 mmHg 62%
    11:00 +24°C° 0 mm 2 mps 743 mmHg 53%
    12:00 +24°C° 0 mm 2 mps 742 mmHg 49%
    13:00 +25°C° 0 mm 2 mps 742 mmHg 46%
    14:00 +26°C° 0 mm 2 mps 742 mmHg 42%
    15:00 +25°C° 0 mm 1 mps 742 mmHg 43%
    16:00 +25°C° 0 mm 1 mps 742 mmHg 44%
    17:00 +25°C° 0 mm 1 mps 742 mmHg 45%
    18:00 +23°C° 0 mm 1 mps 742 mmHg 52%
    19:00 +21°C° 0 mm 1 mps 741 mmHg 59%
    20:00 +19°C° 0 mm 1 mps 741 mmHg 66%
    21:00 +16°C° 0 mm 0 mps 742 mmHg 68%
    22:00 +15°C° 0 mm 0 mps 742 mmHg 70%
    23:00 +14°C° 0 mm 0 mps 742 mmHg 72%

    Day after tomorrow, 23 May, Thursday

    Time Temperature Precipitation Wind Pressure Humidity
    00:00 +14°C° 0 mm 0 mps 742 mmHg 75%
    01:00 +13°C° 0 mm 0 mps 742 mmHg 79%
    02:00 +13°C° 0 mm 0 mps 742 mmHg 82%
    03:00 +13°C° 0 mm 0 mps 742 mmHg 82%
    04:00 +13°C° 0 mm 0 mps 742 mmHg 82%
    05:00 +13°C° 0 mm 0 mps 742 mmHg 82%
    06:00 +16°C° 0 mm 0 mps 742 mmHg 75%
    07:00 +18°C° 0 mm 0 mps 742 mmHg 67%
    08:00 +20°C° 0 mm 0 mps 742 mmHg 59%
    09:00 +22°C° 0 mm 0 mps 742 mmHg 54%
    10:00 +25°C° 0 mm 1 mps 742 mmHg 49%
    11:00 +27°C° 0 mm 1 mps 742 mmHg 43%
    12:00 +27°C° 0 mm 1 mps 742 mmHg 42%
    13:00 +27°C° 0 mm 1 mps 742 mmHg 41%
    14:00 +27°C° 0 mm 1 mps 742 mmHg 40%
    15:00 +26°C° 0 mm 1 mps 742 mmHg 45%
    16:00 +25°C° 0 mm 1 mps 742 mmHg 49%
    17:00 +25°C° 0 mm 1 mps 742 mmHg 54%
    18:00 +23°C° 0 mm 1 mps 742 mmHg 59%
    19:00 +22°C° 0 mm 1 mps 742 mmHg 63%
    20:00 +20°C° 0 mm 1 mps 742 mmHg 68%
    21:00 +19°C° 0 mm 1 mps 742 mmHg 71%
    22:00 +18°C° 0 mm 1 mps 742 mmHg 74%
    23:00 +16°C° 0 mm 1 mps 742 mmHg 77%

    24 May, Friday

    Time Temperature Precipitation Wind Pressure Humidity
    00:00 +16°C° 0 mm 1 mps 742 mmHg 79%
    01:00 +16°C° 0 mm 1 mps 742 mmHg 81%
    02:00 +15°C° 0 mm 1 mps 742 mmHg 83%
    03:00 +15°C° 0 mm 1 mps 742 mmHg 83%
    04:00 +15°C° 0 mm 1 mps 742 mmHg 84%
    05:00 +14°C° 0 mm 0 mps 742 mmHg 85%
    06:00 +17°C° 0 mm 0 mps 742 mmHg 77%
    07:00 +19°C° 0 mm 0 mps 743 mmHg 69%
    08:00 +21°C° 0 mm 0 mps 743 mmHg 61%
    09:00 +24°C° 0 mm 1 mps 743 mmHg 56%
    10:00 +26°C° 0 mm 1 mps 743 mmHg 50%
    11:00 +27°C° 0 mm 2 mps 743 mmHg 44%
    12:00 +27°C° 0 mm 2 mps 742 mmHg 45%
    13:00 +27°C° 0 mm 2 mps 742 mmHg 45%
    14:00 +27°C° 0 mm 2 mps 742 mmHg 45%
    15:00 +26°C° 0.1 mm 2 mps 742 mmHg 49%
    16:00 +26°C° 0.1 mm 2 mps 742 mmHg 52%
    17:00 +25°C° 0.1 mm 2 mps 741 mmHg 56%
    18:00 +23°C° 0.3 mm 2 mps 741 mmHg 67%
    19:00 +20°C° 0.3 mm 2 mps 741 mmHg 78%
    20:00 +18°C° 0.3 mm 2 mps 741 mmHg 89%
    21:00 +17°C° 0.1 mm 2 mps 741 mmHg 91%
    22:00 +17°C° 0.1 mm 2 mps 741 mmHg 94%
    23:00 +16°C° 0.1 mm 2 mps 741 mmHg 96%

    25 May, Saturday

    Time Temperature Precipitation Wind Pressure Humidity
    00:00 +16°C° 0.4 mm 1 mps 741 mmHg 96%
    01:00 +15°C° 0.4 mm 1 mps 741 mmHg 96%
    02:00 +15°C° 0.4 mm 1 mps 741 mmHg 96%
    03:00 +15°C° 0.1 mm 1 mps 740 mmHg 96%
    04:00 +15°C° 0.1 mm 2 mps 740 mmHg 97%
    05:00 +15°C° 0.1 mm 2 mps 740 mmHg 97%
    06:00 +15°C° 0.7 mm 2 mps 740 mmHg 95%
    07:00 +15°C° 0.7 mm 2 mps 740 mmHg 94%
    08:00 +16°C° 0.7 mm 3 mps 740 mmHg 93%
    09:00 +17°C° 0.3 mm 3 mps 740 mmHg 87%
    10:00 +17°C° 0.3 mm 3 mps 740 mmHg 81%
    11:00 +18°C° 0.3 mm 4 mps 740 mmHg 75%
    12:00 +20°C° 0 mm 4 mps 740 mmHg 66%
    13:00 +21°C° 0 mm 4 mps 740 mmHg 58%
    14:00 +22°C° 0 mm 4 mps 740 mmHg 49%
    15:00 +22°C° 0 mm 4 mps 740 mmHg 48%
    16:00 +22°C° 0 mm 4 mps 739 mmHg 48%
    17:00 +21°C° 0 mm 4 mps 739 mmHg 47%
    18:00 +20°C° 0 mm 3 mps 739 mmHg 57%
    19:00 +18°C° 0 mm 3 mps 739 mmHg 67%
    20:00 +16°C° 0 mm 2 mps 740 mmHg 76%
    21:00 +14°C° 0 mm 3 mps 740 mmHg 79%
    22:00 +14°C° 0 mm 3 mps 740 mmHg 82%
    23:00 +13°C° 0 mm 4 mps 740 mmHg 86%

    26 May, Sunday

    Time Temperature Precipitation Wind Pressure Humidity
    00:00 +12°C° 0 mm 3 mps 740 mmHg 86%
    01:00 +11°C° 0 mm 3 mps 741 mmHg 87%
    02:00 +10°C° 0 mm 3 mps 741 mmHg 87%
    03:00 +10°C° 0 mm 3 mps 741 mmHg 88%
    04:00 +9°C° 0 mm 3 mps 741 mmHg 88%
    05:00 +9°C° 0 mm 2 mps 741 mmHg 89%
    06:00 +10°C° 0 mm 3 mps 741 mmHg 82%
    07:00 +12°C° 0 mm 3 mps 741 mmHg 75%
    08:00 +13°C° 0 mm 4 mps 741 mmHg 69%
    09:00 +13°C° 0.1 mm 4 mps 741 mmHg 70%
    10:00 +13°C° 0.1 mm 4 mps 741 mmHg 70%
    11:00 +13°C° 0.1 mm 5 mps 741 mmHg 71%
    12:00 +13°C° 0 mm 5 mps 741 mmHg 67%
    13:00 +14°C° 0 mm 4 mps 741 mmHg 63%
    14:00 +14°C° 0 mm 4 mps 741 mmHg 59%
    15:00 +14°C° 0.2 mm 4 mps 740 mmHg 64%
    16:00 +14°C° 0.2 mm 4 mps 740 mmHg 70%
    17:00 +14°C° 0.2 mm 4 mps 740 mmHg 76%
    18:00 +13°C° 0.1 mm 4 mps 740 mmHg 80%
    19:00 +12°C° 0.1 mm 3 mps 739 mmHg 83%
    20:00 +11°C° 0.1 mm 3 mps 739 mmHg 87%
    21:00 +11°C° 0 mm 3 mps 739 mmHg 88%
    22:00 +11°C° 0 mm 3 mps 740 mmHg 89%
    23:00 +10°C° 0 mm 3 mps 740 mmHg 90%
    Show more